Flag for Argentina Weather past 2 weeks in Salta, Salta, Argentina

Now
57 °F

Partly cloudy.


Feels Like: 57 °F
Forecast: 54 / 69 °F
Wind: No wind

Location: Salta Aerodrome


UV Index: 0 (Low)

Visibility: 5 mi


Pressure: 30.21 "Hg

Humidity: 94%

Dew point: 55 °F

Location of SaltaLocation

Historic Weather in Salta

°F

Salta temperature yesterday

Maximum temperature yesterday: 68 °F (at 3:00 PM)
Minimum temperature yesterday: 57 °F (at 4:00 AM)
Average temperature yesterday: 62 °F

Past Weeks' High & Low Weather Summary

 TemperatureHumidityPressure
High77 °F (Apr 12, 2:00 PM)100% (Apr 9, 9:00 PM)30.45 "Hg (Apr 9, 9:00 PM)
Low39 °F (Apr 15, 5:00 AM)39% (Apr 12, 3:00 PM)29.83 "Hg (Apr 16, 3:00 PM)
Average61 °F80%30.12 "Hg
* Reported Apr 9 4:00 AM — Apr 24 4:00 AM, Salta, Weather by CustomWeather, © 2014

Note: Actual official high and low records may vary slightly from our data, if they occured in-between our weather recording intervals... More about our weather records

Advertising

Historic Weather Conditions — Data for Previous 24 hours

 ConditionsComfort  
Time TempWeatherWind HumidityBarometerVisibility
4:00 AM
Apr 24
59 °FPassing clouds.No wind94%30.21 "Hg6 mi
3:00 AM59 °FPassing clouds.No wind100%30.24 "HgN/A
2:00 AM57 °FPassing clouds.No wind100%30.24 "HgN/A
1:00 AM59 °FPassing clouds.2 mph94%30.27 "HgN/A
12:00 AM61 °FPassing clouds.2 mph88%30.27 "HgN/A
11:00 PM
Apr 23
61 °FPassing clouds.2 mph88%30.27 "HgN/A
10:00 PM61 °FPassing clouds.2 mph94%30.24 "HgN/A
9:00 PM63 °FPassing clouds.3 mph88%30.24 "HgN/A
8:00 PM63 °FPassing clouds.2 mph88%30.21 "HgN/A
7:00 PM64 °FPartly cloudy.6 mph78%30.18 "HgN/A
6:00 PM66 °FPassing clouds.8 mph73%30.15 "HgN/A
5:00 PM68 °FScattered clouds.8 mph69%30.15 "HgN/A
4:00 PM68 °FScattered clouds.8 mph64%30.15 "HgN/A
3:00 PM68 °FScattered clouds.8 mph69%30.15 "HgN/A
2:00 PM66 °FBroken clouds.8 mph73%30.18 "HgN/A
1:00 PM66 °FScattered clouds.6 mph73%30.21 "HgN/A
12:00 PM66 °FPartly sunny.8 mph73%30.24 "HgN/A
11:00 AM63 °FPartly sunny.No wind88%30.24 "Hg5 mi
10:00 AM61 °FPartly sunny.No wind88%30.24 "Hg5 mi
9:00 AM59 °FBroken clouds.No wind94%30.24 "Hg4 mi
8:00 AM59 °FFog.No wind94%30.21 "Hg3 mi
7:00 AM57 °FFog.No wind100%30.18 "Hg1 mi
6:00 AM57 °FFog.No wind100%30.18 "Hg1 mi
5:00 AM57 °FFog.No wind94%30.18 "Hg0 mi
Weather by CustomWeather, © 2014

See weather overview